Flag for Brazil Weather past 2 weeks in Curitiba, Paraná, Brazil

Now
61 °F

Clear.


Feels Like: 61 °F
Forecast: 64 / 77 °F
Wind: 5 mph from North

Location: Curitiba Aeroporto

Current Time: May 24, 2015 at 5:27:39 AM

Latest Report: May 24, 2015 at 5:00 AM


Visibility: 10 mi

Pressure: 30.04 "Hg

Humidity: 94%

Dew point: 59 °F

Location of CuritibaLocation

Historic Weather in Curitiba — Graph

°F

Curitiba temperature yesterday

Maximum temperature yesterday: 77 °F (at 3:00 PM)
Minimum temperature yesterday: 63 °F (at 12:00 AM)
Average temperature yesterday: 68 °F

Past Weeks' High & Low Weather Summary

 TemperatureHumidityPressure
High77 °F (May 23, 3:00 PM)100% (May 9, 4:00 AM)30.36 "Hg (May 9, 4:00 AM)
Low48 °F (May 9, 4:00 AM)38% (May 9, 4:00 PM)29.95 "Hg (May 11, 5:00 AM)
Average60 °F86%30.22 "Hg
* Reported May 9 4:00 AM — May 24 4:00 AM, Curitiba, Weather by CustomWeather, © 2015

Note: Actual official high and low records may vary slightly from our data, if they occured in-between our weather recording intervals... More about our weather records

Advertising

Curitiba weather history for previous 24 hours

 ConditionsComfort  
Time TempWeatherWind HumidityBarometerVisibility
4:00 AM
Sun, May 24
61 °FClear.3 mph94%30.04 "Hg10 mi
3:00 AM61 °FClear.3 mph94%30.07 "Hg10 mi
2:00 AM61 °FClear.2 mph94%30.07 "Hg10 mi
1:00 AM63 °FClear.3 mph88%30.09 "Hg10 mi
12:00 AM63 °FClear.6 mph88%30.09 "Hg10 mi
11:00 PM
Sat, May 23
63 °FClear.3 mph88%30.09 "Hg10 mi
10:00 PM64 °FClear.3 mph83%30.09 "Hg10 mi
9:00 PM66 °FClear.5 mph83%30.09 "Hg10 mi
8:00 PM68 °FClear.3 mph78%30.09 "Hg10 mi
7:00 PM68 °FPassing clouds.6 mph78%30.09 "HgN/A
6:00 PM70 °FPassing clouds.7 mph73%30.09 "HgN/A
5:00 PM73 °FPassing clouds.9 mph61%30.07 "HgN/A
4:00 PM75 °FPartly sunny.15 mph57%30.07 "HgN/A
3:00 PM77 °FPartly sunny.16 mph51%30.09 "HgN/A
2:00 PM75 °FScattered clouds.14 mph57%30.09 "HgN/A
1:00 PM75 °FScattered clouds.14 mph57%30.12 "HgN/A
12:00 PM75 °FScattered clouds.15 mph54%30.15 "HgN/A
11:00 AM73 °FScattered clouds.12 mph61%30.18 "HgN/A
10:00 AM70 °FPassing clouds.8 mph73%30.21 "HgN/A
9:00 AM66 °FPassing clouds.7 mph83%30.21 "HgN/A
8:00 AM63 °FPartly sunny.6 mph94%30.21 "Hg6 mi
7:00 AM63 °FMore clouds than sun.8 mph94%30.21 "Hg4 mi
6:00 AM63 °FPartly sunny.3 mph94%30.18 "Hg4 mi
5:00 AM63 °FFog.2 mph94%30.18 "Hg2 mi
Weather by CustomWeather, © 2015

See weather overviewHow to use our weather pages